Погода в Реченском

Россия / Волгоградская область     50°10′35″N   42°01′59″E
темп.,
°C
ветер,
м/с
пор.,
м/с
влажн.,
%
обл.,
%
осадки,
мм/ч
давл.,
гПа
погр.,
м
24 сентября, пт
пт2400:00+8ююз006710 0.0 101310
03:00+8всв0068100 0.0 101210
06:00+7юв2272100 0.0 101211
09:00+12ююв3456100 0.0 1012404
12:00+14ююз4549100 0.0 10111089
15:00+15ю564897 0.0 10101368
18:00+13ююв3755100 0.0 1009223
21:00+12ююв376387 0.1 1008256
25 сентября, сб
сб2500:00+11ю237696 0.0 100888
03:00+10зюз2270100 0.1 100828
06:00+9ююз2270100 0.0 100819
09:00+11ю2470100 0.0 1008320
12:00+10юв1283100 0.6 1009254
15:00+9ссв1193100 3.6 1010152
18:00+9св119373 0.8 101135
21:00+9з2492100 0.8 1012139
26 сентября, вс
вс2600:00+8з23925 0.0 101253
03:00+7зюз239179 0.0 101236
06:00+9зюз3787100 0.0 1012199
09:00+12зюз5872100 0.0 1011533
12:00+10юз51091100 1.4 1009637
15:00+12з41086100 2.6 1008608
18:00+11зсз598753 0.9 1007295
21:00+9зсз614855 1.3 1008461
27 сентября, пн
пн2700:00+8зсз612895 0.0 1009445
03:00+8зсз61287100 0.0 1010583
06:00+8зсз61088100 0.1 1011576
09:00+11сз6775100 0.1 1012866
12:00+12ссз687667 0.3 1013914
15:00+11с5979100 0.7 1015707
18:00+11ссз497598 0.2 1017367
21:00+8ссз378931 0.2 1018147
28 сентября, вт
вт2800:00+9ссз3690100 0.0 1019218
03:00+9ссз3785100 0.1 1020280
06:00+9с4794100 0.1 1022340
09:00+10ссв3691100 0.3 1023495
12:00+9всв4682100 0.1 1025531
15:00+13св345668 0.1 10251303
18:00+10ссв3568100 0.0 1027158
21:00+10ссв2568100 0.0 1028117